When you browse on this site, cookies collect data to enhance your experience and personalize the content and advertising you see.
Visit our Privacy Policy to learn more. By continuing to use the site, you agree to this use of cookies and data.
  • In United Kingdom
  • List of Countries
  • For 7 days
  • Water Temperature
  • Weather Map
  • Weather Widgets
  • user-avatar
    Login

    Hourly Weather Townsville

    Today, 20 February, Thursday

    Time Temperature Precipitation Wind Pressure Humidity
    00:00 +29°C° 0 mm 2 mps 748 mmHg 85%
    01:00 +29°C° 0 mm 2 mps 748 mmHg 86%
    02:00 +29°C° 0.1 mm 1 mps 748 mmHg 85%
    03:00 +29°C° 0.1 mm 1 mps 747 mmHg 85%
    04:00 +28°C° 0 mm 1 mps 747 mmHg 85%
    05:00 +29°C° 0 mm 1 mps 748 mmHg 84%
    06:00 +29°C° 0 mm 1 mps 748 mmHg 83%
    07:00 +29°C° 0 mm 1 mps 749 mmHg 82%
    08:00 +31°C° 0 mm 1 mps 749 mmHg 77%
    09:00 +32°C° 0 mm 2 mps 749 mmHg 72%
    10:00 +33°C° 0 mm 1 mps 749 mmHg 67%
    11:00 +33°C° 0 mm 1 mps 749 mmHg 66%
    12:00 +34°C° 0 mm 2 mps 748 mmHg 65%
    13:00 +35°C° 0 mm 2 mps 748 mmHg 64%
    14:00 +35°C° 0 mm 2 mps 747 mmHg 65%
    15:00 +34°C° 0 mm 3 mps 747 mmHg 65%
    16:00 +35°C° 0 mm 3 mps 747 mmHg 64%
    17:00 +33°C° 0.1 mm 3 mps 747 mmHg 69%
    18:00 +31°C° 0.1 mm 3 mps 748 mmHg 74%
    19:00 +30°C° 0.1 mm 3 mps 748 mmHg 79%
    20:00 +30°C° 0.1 mm 3 mps 749 mmHg 81%
    21:00 +29°C° 0.1 mm 2 mps 749 mmHg 83%
    22:00 +29°C° 0 mm 2 mps 750 mmHg 83%
    23:00 +29°C° 0.2 mm 2 mps 750 mmHg 83%

    Tomorrow, 21 February, Friday

    Time Temperature Precipitation Wind Pressure Humidity
    00:00 +29°C° 0.2 mm 2 mps 750 mmHg 84%
    01:00 +28°C° 0.2 mm 2 mps 749 mmHg 85%
    02:00 +28°C° 0 mm 2 mps 749 mmHg 85%
    03:00 +28°C° 0 mm 2 mps 749 mmHg 85%
    04:00 +28°C° 0 mm 2 mps 748 mmHg 85%
    05:00 +28°C° 0 mm 2 mps 749 mmHg 84%
    06:00 +29°C° 0 mm 2 mps 749 mmHg 83%
    07:00 +29°C° 0 mm 2 mps 750 mmHg 81%
    08:00 +30°C° 0 mm 2 mps 750 mmHg 75%
    09:00 +31°C° 0 mm 3 mps 750 mmHg 69%
    10:00 +34°C° 0 mm 3 mps 750 mmHg 63%
    11:00 +34°C° 0 mm 3 mps 750 mmHg 61%
    12:00 +35°C° 0 mm 3 mps 750 mmHg 58%
    13:00 +35°C° 0 mm 3 mps 749 mmHg 56%
    14:00 +35°C° 0 mm 3 mps 749 mmHg 57%
    15:00 +34°C° 0 mm 4 mps 748 mmHg 58%
    16:00 +34°C° 0 mm 4 mps 748 mmHg 59%
    23:00 +28°C° 0.1 mm 3 mps 751 mmHg 85%

    Day after tomorrow, 22 February, Saturday

    Time Temperature Precipitation Wind Pressure Humidity
    00:00 +28°C° 0.8 mm 3 mps 750 mmHg 89%
    01:00 +28°C° 0.8 mm 3 mps 750 mmHg 89%
    02:00 +27°C° 0.5 mm 3 mps 750 mmHg 90%
    03:00 +27°C° 0.5 mm 3 mps 750 mmHg 90%
    04:00 +27°C° 0.5 mm 3 mps 750 mmHg 90%
    05:00 +27°C° 0.4 mm 3 mps 750 mmHg 89%
    06:00 +27°C° 0.4 mm 3 mps 751 mmHg 89%
    07:00 +28°C° 0.4 mm 3 mps 751 mmHg 88%
    08:00 +29°C° 0.6 mm 3 mps 751 mmHg 81%
    09:00 +30°C° 0.6 mm 3 mps 752 mmHg 75%
    10:00 +33°C° 0.6 mm 4 mps 752 mmHg 68%
    11:00 +33°C° 0.4 mm 4 mps 751 mmHg 68%
    12:00 +33°C° 0.4 mm 5 mps 751 mmHg 68%
    13:00 +33°C° 0.4 mm 5 mps 750 mmHg 68%
    14:00 +32°C° 1 mm 5 mps 750 mmHg 74%
    15:00 +30°C° 1 mm 4 mps 749 mmHg 80%
    16:00 +28°C° 1 mm 4 mps 749 mmHg 86%
    17:00 +28°C° 1 mm 4 mps 749 mmHg 87%
    18:00 +28°C° 1 mm 4 mps 750 mmHg 88%
    19:00 +28°C° 1 mm 4 mps 750 mmHg 89%
    20:00 +28°C° 0.4 mm 4 mps 750 mmHg 89%
    21:00 +28°C° 0.4 mm 4 mps 751 mmHg 89%
    22:00 +27°C° 0.4 mm 4 mps 751 mmHg 89%
    23:00 +27°C° 1.4 mm 4 mps 751 mmHg 90%

    23 February, Sunday

    Time Temperature Precipitation Wind Pressure Humidity
    00:00 +27°C° 1.4 mm 4 mps 750 mmHg 91%
    01:00 +27°C° 1.4 mm 3 mps 750 mmHg 92%
    02:00 +27°C° 1.7 mm 4 mps 750 mmHg 91%
    03:00 +27°C° 1.7 mm 4 mps 750 mmHg 91%
    04:00 +27°C° 1.7 mm 4 mps 750 mmHg 91%
    05:00 +27°C° 1.5 mm 4 mps 750 mmHg 91%
    06:00 +27°C° 1.5 mm 4 mps 750 mmHg 91%
    07:00 +28°C° 1.5 mm 4 mps 751 mmHg 91%
    08:00 +28°C° 1.7 mm 3 mps 751 mmHg 91%
    09:00 +28°C° 1.7 mm 3 mps 751 mmHg 90%
    10:00 +28°C° 1.7 mm 3 mps 752 mmHg 90%
    11:00 +28°C° 1.2 mm 3 mps 751 mmHg 89%
    12:00 +28°C° 1.2 mm 3 mps 751 mmHg 88%
    13:00 +28°C° 1.2 mm 2 mps 750 mmHg 87%
    14:00 +29°C° 0.1 mm 3 mps 750 mmHg 83%
    15:00 +29°C° 0.1 mm 3 mps 750 mmHg 79%
    16:00 +30°C° 0.1 mm 3 mps 749 mmHg 75%
    17:00 +29°C° 0.3 mm 4 mps 750 mmHg 78%
    18:00 +28°C° 0.3 mm 4 mps 750 mmHg 81%
    19:00 +28°C° 0.3 mm 4 mps 750 mmHg 84%
    20:00 +27°C° 0.4 mm 4 mps 751 mmHg 85%
    21:00 +27°C° 0.4 mm 4 mps 752 mmHg 86%
    22:00 +27°C° 0.4 mm 4 mps 752 mmHg 87%
    23:00 +27°C° 0.7 mm 4 mps 752 mmHg 88%

    24 February, Monday

    Time Temperature Precipitation Wind Pressure Humidity
    00:00 +27°C° 0.7 mm 4 mps 751 mmHg 90%
    01:00 +27°C° 0.7 mm 4 mps 751 mmHg 91%
    02:00 +27°C° 1.2 mm 4 mps 751 mmHg 91%
    03:00 +27°C° 1.2 mm 4 mps 750 mmHg 92%
    04:00 +26°C° 1.2 mm 4 mps 750 mmHg 92%
    05:00 +27°C° 2.1 mm 3 mps 751 mmHg 93%
    06:00 +27°C° 2.1 mm 3 mps 751 mmHg 93%
    07:00 +27°C° 2.1 mm 3 mps 751 mmHg 93%
    08:00 +28°C° 1.3 mm 3 mps 751 mmHg 90%
    09:00 +28°C° 1.3 mm 3 mps 751 mmHg 88%
    10:00 +29°C° 1.3 mm 4 mps 751 mmHg 85%
    11:00 +29°C° 1 mm 4 mps 751 mmHg 85%
    12:00 +29°C° 1 mm 4 mps 751 mmHg 84%
    13:00 +30°C° 1 mm 4 mps 750 mmHg 84%
    14:00 +30°C° 0.8 mm 4 mps 750 mmHg 82%
    15:00 +30°C° 0.8 mm 4 mps 749 mmHg 81%
    16:00 +30°C° 0.8 mm 5 mps 749 mmHg 80%
    17:00 +29°C° 0.3 mm 4 mps 749 mmHg 82%
    18:00 +29°C° 0.3 mm 4 mps 749 mmHg 85%
    19:00 +28°C° 0.3 mm 4 mps 749 mmHg 88%
    20:00 +28°C° 0.1 mm 3 mps 750 mmHg 87%
    21:00 +28°C° 0.1 mm 3 mps 750 mmHg 87%
    22:00 +28°C° 0.1 mm 3 mps 751 mmHg 86%
    23:00 +28°C° 0.2 mm 3 mps 751 mmHg 87%

    25 February, Tuesday

    Time Temperature Precipitation Wind Pressure Humidity
    00:00 +27°C° 0.2 mm 2 mps 750 mmHg 87%
    01:00 +27°C° 0.2 mm 2 mps 750 mmHg 88%
    02:00 +27°C° 0.5 mm 2 mps 750 mmHg 88%
    03:00 +27°C° 0.5 mm 2 mps 750 mmHg 89%
    04:00 +27°C° 0.5 mm 2 mps 750 mmHg 89%
    05:00 +27°C° 0.5 mm 2 mps 750 mmHg 88%
    06:00 +27°C° 0.5 mm 2 mps 750 mmHg 88%
    07:00 +28°C° 0.5 mm 2 mps 751 mmHg 87%
    08:00 +29°C° 0.4 mm 2 mps 751 mmHg 82%
    09:00 +30°C° 0.4 mm 2 mps 751 mmHg 76%
    10:00 +33°C° 0.4 mm 3 mps 751 mmHg 70%
    11:00 +33°C° 0.1 mm 3 mps 751 mmHg 67%
    12:00 +34°C° 0.1 mm 3 mps 750 mmHg 63%
    13:00 +34°C° 0.1 mm 3 mps 750 mmHg 60%
    14:00 +34°C° 0 mm 4 mps 749 mmHg 61%
    15:00 +34°C° 0 mm 4 mps 749 mmHg 63%
    16:00 +33°C° 0 mm 4 mps 748 mmHg 64%
    17:00 +32°C° 0 mm 4 mps 749 mmHg 68%
    18:00 +30°C° 0 mm 3 mps 749 mmHg 73%
    19:00 +29°C° 0 mm 3 mps 749 mmHg 77%
    20:00 +29°C° 0.1 mm 3 mps 750 mmHg 78%
    21:00 +29°C° 0.1 mm 2 mps 750 mmHg 80%
    22:00 +29°C° 0.1 mm 2 mps 751 mmHg 81%
    23:00 +28°C° 0.1 mm 2 mps 750 mmHg 82%
    Show more